owner,sensor,date,latitude,longitude,vertical_datum,mass_concentration_of_oxygen_in_sea_water,qcFlag 
SCCF RECON,ioos:station:SCCF:18:1,2019-02-01T05:00:00Z,26.6955,-81.8138,1.53,7.82,1111122 
SCCF RECON,ioos:station:SCCF:18:1,2019-02-01T06:00:00Z,26.6955,-81.8138,1.523,7.71,1111122 
SCCF RECON,ioos:station:SCCF:18:1,2019-02-01T07:00:00Z,26.6955,-81.8138,1.494,7.76,1111122 
SCCF RECON,ioos:station:SCCF:18:1,2019-02-01T08:00:00Z,26.6955,-81.8138,1.448,7.5,1111122 
SCCF RECON,ioos:station:SCCF:18:1,2019-02-01T09:00:00Z,26.6955,-81.8138,1.391,7.52,1111122 
SCCF RECON,ioos:station:SCCF:18:1,2019-02-01T10:00:00Z,26.6955,-81.8138,1.336,7.55,1111122 
SCCF RECON,ioos:station:SCCF:18:1,2019-02-01T11:00:00Z,26.6955,-81.8138,1.293,7.54,1111122 
SCCF RECON,ioos:station:SCCF:18:1,2019-02-01T12:00:00Z,26.6955,-81.8138,1.259,7.57,1111122 
SCCF RECON,ioos:station:SCCF:18:1,2019-02-01T13:00:00Z,26.6955,-81.8138,1.225,7.41,1111122 
SCCF RECON,ioos:station:SCCF:18:1,2019-02-01T14:00:00Z,26.6955,-81.8138,1.18,7.49,1111122 
SCCF RECON,ioos:station:SCCF:18:1,2019-02-01T15:00:00Z,26.6955,-81.8138,1.173,7.56,1111122 
SCCF RECON,ioos:station:SCCF:18:1,2019-02-01T16:00:00Z,26.6955,-81.8138,1.218,7.7,1111122 
SCCF RECON,ioos:station:SCCF:18:1,2019-02-01T17:00:00Z,26.6955,-81.8138,1.291,7.78,1111122 
SCCF RECON,ioos:station:SCCF:18:1,2019-02-01T18:00:00Z,26.6955,-81.8138,1.355,8.19,1111122 
SCCF RECON,ioos:station:SCCF:18:1,2019-02-01T19:00:00Z,26.6955,-81.8138,1.389,8.06,1111122 
SCCF RECON,ioos:station:SCCF:18:1,2019-02-01T20:00:00Z,26.6955,-81.8138,1.433,8.08,1111122 
SCCF RECON,ioos:station:SCCF:18:1,2019-02-01T21:00:00Z,26.6955,-81.8138,1.478,8.34,1111122 
SCCF RECON,ioos:station:SCCF:18:1,2019-02-01T22:00:00Z,26.6955,-81.8138,1.497,8.39,1111122 
SCCF RECON,ioos:station:SCCF:18:1,2019-02-01T23:00:00Z,26.6955,-81.8138,1.472,8.01,1111122 
SCCF RECON,ioos:station:SCCF:18:1,2019-02-02T05:00:00Z,26.6955,-81.8138,1.69,7.86,1111122 
SCCF RECON,ioos:station:SCCF:18:1,2019-02-02T06:00:00Z,26.6955,-81.8138,1.701,7.77,1111122 
SCCF RECON,ioos:station:SCCF:18:1,2019-02-02T07:00:00Z,26.6955,-81.8138,1.681,7.82,1111122 
SCCF RECON,ioos:station:SCCF:18:1,2019-02-02T08:00:00Z,26.6955,-81.8138,1.631,7.58,1111122 
SCCF RECON,ioos:station:SCCF:18:1,2019-02-02T09:00:00Z,26.6955,-81.8138,1.555,7.27,1111122 
SCCF RECON,ioos:station:SCCF:18:1,2019-02-02T10:00:00Z,26.6955,-81.8138,1.49,7.36,1111122 
SCCF RECON,ioos:station:SCCF:18:1,2019-02-02T11:00:00Z,26.6955,-81.8138,1.439,7.39,1111122 
SCCF RECON,ioos:station:SCCF:18:1,2019-02-02T12:00:00Z,26.6955,-81.8138,1.387,7.34,1111122 
SCCF RECON,ioos:station:SCCF:18:1,2019-02-02T13:00:00Z,26.6955,-81.8138,1.339,7.28,1111122 
SCCF RECON,ioos:station:SCCF:18:1,2019-02-02T14:00:00Z,26.6955,-81.8138,1.281,7.48,1111122 
SCCF RECON,ioos:station:SCCF:18:1,2019-02-02T15:00:00Z,26.6955,-81.8138,1.241,7.49,1111122 
SCCF RECON,ioos:station:SCCF:18:1,2019-02-02T16:00:00Z,26.6955,-81.8138,1.25,7.59,1111122 
SCCF RECON,ioos:station:SCCF:18:1,2019-02-02T17:00:00Z,26.6955,-81.8138,1.311,7.52,1111122 
SCCF RECON,ioos:station:SCCF:18:1,2019-02-02T18:00:00Z,26.6955,-81.8138,1.38,7.95,1111122 
SCCF RECON,ioos:station:SCCF:18:1,2019-02-02T19:00:00Z,26.6955,-81.8138,1.434,7.91,1111122 
SCCF RECON,ioos:station:SCCF:18:1,2019-02-02T20:00:00Z,26.6955,-81.8138,1.49,7.94,1111122 
SCCF RECON,ioos:station:SCCF:18:1,2019-02-02T21:00:00Z,26.6955,-81.8138,1.53,7.81,1111122 
SCCF RECON,ioos:station:SCCF:18:1,2019-02-02T22:00:00Z,26.6955,-81.8138,1.533,7.7,1111122 
SCCF RECON,ioos:station:SCCF:18:1,2019-02-02T23:00:00Z,26.6955,-81.8138,1.496,7.94,1111122 
SCCF RECON,ioos:station:SCCF:18:1,2019-02-03T05:00:00Z,26.6955,-81.8138,1.641,7.49,1111122 
SCCF RECON,ioos:station:SCCF:18:1,2019-02-03T06:00:00Z,26.6955,-81.8138,1.68,7.43,1111122 
SCCF RECON,ioos:station:SCCF:18:1,2019-02-03T07:00:00Z,26.6955,-81.8138,1.704,7.34,1111122 
SCCF RECON,ioos:station:SCCF:18:1,2019-02-03T08:00:00Z,26.6955,-81.8138,1.7,7.45,1111122 
SCCF RECON,ioos:station:SCCF:18:1,2019-02-03T09:00:00Z,26.6955,-81.8138,1.629,7.53,1111122 
SCCF RECON,ioos:station:SCCF:18:1,2019-02-03T10:00:00Z,26.6955,-81.8138,1.542,7.14,1111122 
SCCF RECON,ioos:station:SCCF:18:1,2019-02-03T11:00:00Z,26.6955,-81.8138,1.476,7.37,1111122 
SCCF RECON,ioos:station:SCCF:18:1,2019-02-03T12:00:00Z,26.6955,-81.8138,1.431,7.23,1111122 
SCCF RECON,ioos:station:SCCF:18:1,2019-02-03T13:00:00Z,26.6955,-81.8138,1.389,7.04,1111122 
SCCF RECON,ioos:station:SCCF:18:1,2019-02-03T14:00:00Z,26.6955,-81.8138,1.341,7.01,1111122 
SCCF RECON,ioos:station:SCCF:18:1,2019-02-03T15:00:00Z,26.6955,-81.8138,1.292,7.37,1111122 
SCCF RECON,ioos:station:SCCF:18:1,2019-02-03T16:00:00Z,26.6955,-81.8138,1.259,7.48,1111122 
SCCF RECON,ioos:station:SCCF:18:1,2019-02-03T17:00:00Z,26.6955,-81.8138,1.282,7.48,1111122 
SCCF RECON,ioos:station:SCCF:18:1,2019-02-03T18:00:00Z,26.6955,-81.8138,1.354,7.49,1111122 
SCCF RECON,ioos:station:SCCF:18:1,2019-02-03T19:00:00Z,26.6955,-81.8138,1.44,7.87,1111122 
SCCF RECON,ioos:station:SCCF:18:1,2019-02-03T20:00:00Z,26.6955,-81.8138,1.48,7.65,1111122 
SCCF RECON,ioos:station:SCCF:18:1,2019-02-03T21:00:00Z,26.6955,-81.8138,1.51,7.56,1111122 
SCCF RECON,ioos:station:SCCF:18:1,2019-02-03T22:00:00Z,26.6955,-81.8138,1.513,7.48,1111122 
SCCF RECON,ioos:station:SCCF:18:1,2019-02-03T23:00:00Z,26.6955,-81.8138,1.488,7.65,1111122 
SCCF RECON,ioos:station:SCCF:18:1,2019-02-04T05:00:00Z,26.6955,-81.8138,1.535,7.22,1111122 
SCCF RECON,ioos:station:SCCF:18:1,2019-02-04T06:00:00Z,26.6955,-81.8138,1.601,7.08,1111122 
SCCF RECON,ioos:station:SCCF:18:1,2019-02-04T07:00:00Z,26.6955,-81.8138,1.635,7.15,1111122 
SCCF RECON,ioos:station:SCCF:18:1,2019-02-04T08:00:00Z,26.6955,-81.8138,1.669,7.08,1111122 
SCCF RECON,ioos:station:SCCF:18:1,2019-02-04T09:00:00Z,26.6955,-81.8138,1.65,7.08,1111122 
SCCF RECON,ioos:station:SCCF:18:1,2019-02-04T10:00:00Z,26.6955,-81.8138,1.571,7.17,1111122 
SCCF RECON,ioos:station:SCCF:18:1,2019-02-04T11:00:00Z,26.6955,-81.8138,1.494,6.99,1111122 
SCCF RECON,ioos:station:SCCF:18:1,2019-02-04T12:00:00Z,26.6955,-81.8138,1.431,6.95,1111122 
SCCF RECON,ioos:station:SCCF:18:1,2019-02-04T13:00:00Z,26.6955,-81.8138,1.393,7.0,1111122 
SCCF RECON,ioos:station:SCCF:18:1,2019-02-04T14:00:00Z,26.6955,-81.8138,1.342,6.9,1111122 
SCCF RECON,ioos:station:SCCF:18:1,2019-02-04T16:00:00Z,26.6955,-81.8138,1.252,7.24,1111122 
SCCF RECON,ioos:station:SCCF:18:1,2019-02-04T17:00:00Z,26.6955,-81.8138,1.226,7.28,1111122 
SCCF RECON,ioos:station:SCCF:18:1,2019-02-04T18:00:00Z,26.6955,-81.8138,1.276,7.27,1111122 
SCCF RECON,ioos:station:SCCF:18:1,2019-02-04T19:00:00Z,26.6955,-81.8138,1.355,7.58,1111122 
SCCF RECON,ioos:station:SCCF:18:1,2019-02-04T20:00:00Z,26.6955,-81.8138,1.422,7.8,1111122 
SCCF RECON,ioos:station:SCCF:18:1,2019-02-04T21:00:00Z,26.6955,-81.8138,1.463,7.6,1111122 
SCCF RECON,ioos:station:SCCF:18:1,2019-02-04T22:00:00Z,26.6955,-81.8138,1.495,7.58,1111122 
SCCF RECON,ioos:station:SCCF:18:1,2019-02-04T23:00:00Z,26.6955,-81.8138,1.498,7.55,1111122 
SCCF RECON,ioos:station:SCCF:18:1,2019-02-05T05:00:00Z,26.6955,-81.8138,1.468,7.22,1111122 
SCCF RECON,ioos:station:SCCF:18:1,2019-02-05T06:00:00Z,26.6955,-81.8138,1.55,7.13,1111122 
SCCF RECON,ioos:station:SCCF:18:1,2019-02-05T07:00:00Z,26.6955,-81.8138,1.602,7.12,1111122 
SCCF RECON,ioos:station:SCCF:18:1,2019-02-05T08:00:00Z,26.6955,-81.8138,1.635,7.11,1111122 
SCCF RECON,ioos:station:SCCF:18:1,2019-02-05T09:00:00Z,26.6955,-81.8138,1.651,7.05,1111122 
SCCF RECON,ioos:station:SCCF:18:1,2019-02-05T10:00:00Z,26.6955,-81.8138,1.59,7.05,1111122 
SCCF RECON,ioos:station:SCCF:18:1,2019-02-05T11:00:00Z,26.6955,-81.8138,1.508,6.91,1111122 
SCCF RECON,ioos:station:SCCF:18:1,2019-02-05T12:00:00Z,26.6955,-81.8138,1.45,6.78,1111122 
SCCF RECON,ioos:station:SCCF:18:1,2019-02-05T13:00:00Z,26.6955,-81.8138,1.411,6.71,1111122 
SCCF RECON,ioos:station:SCCF:18:1,2019-02-05T14:00:00Z,26.6955,-81.8138,1.368,6.87,1111122 
SCCF RECON,ioos:station:SCCF:18:1,2019-02-05T15:00:00Z,26.6955,-81.8138,1.307,6.74,1111122 
SCCF RECON,ioos:station:SCCF:18:1,2019-02-05T16:00:00Z,26.6955,-81.8138,1.257,6.87,1111122 
SCCF RECON,ioos:station:SCCF:18:1,2019-02-05T17:00:00Z,26.6955,-81.8138,1.221,6.92,1111122 
SCCF RECON,ioos:station:SCCF:18:1,2019-02-05T18:00:00Z,26.6955,-81.8138,1.248,7.12,1111122 
SCCF RECON,ioos:station:SCCF:18:1,2019-02-05T19:00:00Z,26.6955,-81.8138,1.318,7.51,1111122 
SCCF RECON,ioos:station:SCCF:18:1,2019-02-05T20:00:00Z,26.6955,-81.8138,1.398,7.79,1111122 
SCCF RECON,ioos:station:SCCF:18:1,2019-02-05T21:00:00Z,26.6955,-81.8138,1.448,8.09,1111122 
SCCF RECON,ioos:station:SCCF:18:1,2019-02-05T22:00:00Z,26.6955,-81.8138,1.478,8.01,1111122 
SCCF RECON,ioos:station:SCCF:18:1,2019-02-05T23:00:00Z,26.6955,-81.8138,1.491,8.04,1111122 
SCCF RECON,ioos:station:SCCF:18:1,2019-02-06T05:00:00Z,26.6955,-81.8138,1.411,7.11,1111122 
SCCF RECON,ioos:station:SCCF:18:1,2019-02-06T06:00:00Z,26.6955,-81.8138,1.491,6.96,1111122 
SCCF RECON,ioos:station:SCCF:18:1,2019-02-06T07:00:00Z,26.6955,-81.8138,1.568,7.02,1111122 
SCCF RECON,ioos:station:SCCF:18:1,2019-02-06T08:00:00Z,26.6955,-81.8138,1.611,6.92,1111122 
SCCF RECON,ioos:station:SCCF:18:1,2019-02-06T09:00:00Z,26.6955,-81.8138,1.654,6.87,1111122 
SCCF RECON,ioos:station:SCCF:18:1,2019-02-06T10:00:00Z,26.6955,-81.8138,1.641,6.9,1111122 
SCCF RECON,ioos:station:SCCF:18:1,2019-02-06T11:00:00Z,26.6955,-81.8138,1.567,6.87,1111122 
SCCF RECON,ioos:station:SCCF:18:1,2019-02-06T12:00:00Z,26.6955,-81.8138,1.49,6.75,1111122 
SCCF RECON,ioos:station:SCCF:18:1,2019-02-06T13:00:00Z,26.6955,-81.8138,1.438,6.64,1111122 
SCCF RECON,ioos:station:SCCF:18:1,2019-02-06T14:00:00Z,26.6955,-81.8138,1.397,6.68,1111122 
SCCF RECON,ioos:station:SCCF:18:1,2019-02-06T15:00:00Z,26.6955,-81.8138,1.348,6.68,1111122 
SCCF RECON,ioos:station:SCCF:18:1,2019-02-06T16:00:00Z,26.6955,-81.8138,1.289,6.87,1111122 
SCCF RECON,ioos:station:SCCF:18:1,2019-02-06T17:00:00Z,26.6955,-81.8138,1.238,6.92,1111122 
SCCF RECON,ioos:station:SCCF:18:1,2019-02-06T18:00:00Z,26.6955,-81.8138,1.22,7.1,1111122 
SCCF RECON,ioos:station:SCCF:18:1,2019-02-06T19:00:00Z,26.6955,-81.8138,1.285,7.07,1111122 
SCCF RECON,ioos:station:SCCF:18:1,2019-02-06T20:00:00Z,26.6955,-81.8138,1.369,7.83,1111122 
SCCF RECON,ioos:station:SCCF:18:1,2019-02-06T21:00:00Z,26.6955,-81.8138,1.431,7.94,1111122 
SCCF RECON,ioos:station:SCCF:18:1,2019-02-06T23:00:00Z,26.6955,-81.8138,1.52,7.51,1111122 
SCCF RECON,ioos:station:SCCF:18:1,2019-02-07T05:00:00Z,26.6955,-81.8138,1.369,7.27,1111122 
SCCF RECON,ioos:station:SCCF:18:1,2019-02-07T06:00:00Z,26.6955,-81.8138,1.441,7.18,1111122 
SCCF RECON,ioos:station:SCCF:18:1,2019-02-07T07:00:00Z,26.6955,-81.8138,1.527,6.82,1111122 
SCCF RECON,ioos:station:SCCF:18:1,2019-02-07T08:00:00Z,26.6955,-81.8138,1.58,6.99,1111122 
SCCF RECON,ioos:station:SCCF:18:1,2019-02-07T09:00:00Z,26.6955,-81.8138,1.62,6.79,1111122 
SCCF RECON,ioos:station:SCCF:18:1,2019-02-07T10:00:00Z,26.6955,-81.8138,1.64,6.85,1111122 
SCCF RECON,ioos:station:SCCF:18:1,2019-02-07T11:00:00Z,26.6955,-81.8138,1.599,6.71,1111122 
SCCF RECON,ioos:station:SCCF:18:1,2019-02-07T12:00:00Z,26.6955,-81.8138,1.515,6.58,1111122 
SCCF RECON,ioos:station:SCCF:18:1,2019-02-07T13:00:00Z,26.6955,-81.8138,1.447,6.59,1111122 
SCCF RECON,ioos:station:SCCF:18:1,2019-02-07T14:00:00Z,26.6955,-81.8138,1.4,6.65,1111122 
SCCF RECON,ioos:station:SCCF:18:1,2019-02-07T15:00:00Z,26.6955,-81.8138,1.355,6.82,1111122 
SCCF RECON,ioos:station:SCCF:18:1,2019-02-07T16:00:00Z,26.6955,-81.8138,1.301,7.07,1111122 
SCCF RECON,ioos:station:SCCF:18:1,2019-02-07T17:00:00Z,26.6955,-81.8138,1.243,7.15,1111122 
SCCF RECON,ioos:station:SCCF:18:1,2019-02-07T18:00:00Z,26.6955,-81.8138,1.21,7.37,1111122 
SCCF RECON,ioos:station:SCCF:18:1,2019-02-07T19:00:00Z,26.6955,-81.8138,1.247,7.42,1111122 
SCCF RECON,ioos:station:SCCF:18:1,2019-02-07T20:00:00Z,26.6955,-81.8138,1.317,7.92,1111122 
SCCF RECON,ioos:station:SCCF:18:1,2019-02-07T21:00:00Z,26.6955,-81.8138,1.393,7.99,1111122 
SCCF RECON,ioos:station:SCCF:18:1,2019-02-07T22:00:00Z,26.6955,-81.8138,1.442,7.77,1111122 
SCCF RECON,ioos:station:SCCF:18:1,2019-02-07T23:00:00Z,26.6955,-81.8138,1.5,7.58,1111122 
SCCF RECON,ioos:station:SCCF:18:1,2019-02-08T05:00:00Z,26.6955,-81.8138,1.324,7.03,1111122 
SCCF RECON,ioos:station:SCCF:18:1,2019-02-08T06:00:00Z,26.6955,-81.8138,1.371,7.15,1111122 
SCCF RECON,ioos:station:SCCF:18:1,2019-02-08T07:00:00Z,26.6955,-81.8138,1.451,6.72,1111122 
SCCF RECON,ioos:station:SCCF:18:1,2019-02-08T08:00:00Z,26.6955,-81.8138,1.54,6.79,1111122 
SCCF RECON,ioos:station:SCCF:18:1,2019-02-08T09:00:00Z,26.6955,-81.8138,1.59,6.78,1111122 
SCCF RECON,ioos:station:SCCF:18:1,2019-02-08T10:00:00Z,26.6955,-81.8138,1.62,6.78,1111122 
SCCF RECON,ioos:station:SCCF:18:1,2019-02-08T11:00:00Z,26.6955,-81.8138,1.63,6.71,1111122 
SCCF RECON,ioos:station:SCCF:18:1,2019-02-08T12:00:00Z,26.6955,-81.8138,1.57,6.6,1111122 
SCCF RECON,ioos:station:SCCF:18:1,2019-02-08T13:00:00Z,26.6955,-81.8138,1.5,6.37,1111122 
SCCF RECON,ioos:station:SCCF:18:1,2019-02-08T14:00:00Z,26.6955,-81.8138,1.443,6.41,1111122 
SCCF RECON,ioos:station:SCCF:18:1,2019-02-08T15:00:00Z,26.6955,-81.8138,1.398,6.62,1111122 
SCCF RECON,ioos:station:SCCF:18:1,2019-02-08T16:00:00Z,26.6955,-81.8138,1.352,6.55,1111122 
SCCF RECON,ioos:station:SCCF:18:1,2019-02-08T17:00:00Z,26.6955,-81.8138,1.3,6.65,1111122 
SCCF RECON,ioos:station:SCCF:18:1,2019-02-08T18:00:00Z,26.6955,-81.8138,1.249,6.92,1111122 
SCCF RECON,ioos:station:SCCF:18:1,2019-02-08T19:00:00Z,26.6955,-81.8138,1.239,7.15,1111122 
SCCF RECON,ioos:station:SCCF:18:1,2019-02-08T20:00:00Z,26.6955,-81.8138,1.31,7.11,1111122 
SCCF RECON,ioos:station:SCCF:18:1,2019-02-08T21:00:00Z,26.6955,-81.8138,1.39,7.28,1111122 
SCCF RECON,ioos:station:SCCF:18:1,2019-02-08T22:00:00Z,26.6955,-81.8138,1.441,7.14,1111122 
SCCF RECON,ioos:station:SCCF:18:1,2019-02-08T23:00:00Z,26.6955,-81.8138,1.471,7.42,1111122 
SCCF RECON,ioos:station:SCCF:18:1,2019-02-09T05:00:00Z,26.6955,-81.8138,1.273,6.95,1111122 
SCCF RECON,ioos:station:SCCF:18:1,2019-02-09T06:00:00Z,26.6955,-81.8138,1.251,8.1,1111122 
SCCF RECON,ioos:station:SCCF:18:1,2019-02-09T07:00:00Z,26.6955,-81.8138,1.289,8.06,1111122 
SCCF RECON,ioos:station:SCCF:18:1,2019-02-09T08:00:00Z,26.6955,-81.8138,1.369,6.92,1111122 
SCCF RECON,ioos:station:SCCF:18:1,2019-02-09T09:00:00Z,26.6955,-81.8138,1.44,6.61,1111122 
SCCF RECON,ioos:station:SCCF:18:1,2019-02-09T10:00:00Z,26.6955,-81.8138,1.474,6.51,1111122 
SCCF RECON,ioos:station:SCCF:18:1,2019-02-09T11:00:00Z,26.6955,-81.8138,1.5,6.6,1111122 
SCCF RECON,ioos:station:SCCF:18:1,2019-02-09T12:00:00Z,26.6955,-81.8138,1.49,6.82,1111122 
SCCF RECON,ioos:station:SCCF:18:1,2019-02-09T13:00:00Z,26.6955,-81.8138,1.43,6.66,1111122 
SCCF RECON,ioos:station:SCCF:18:1,2019-02-09T14:00:00Z,26.6955,-81.8138,1.359,6.35,1111122 
SCCF RECON,ioos:station:SCCF:18:1,2019-02-09T15:00:00Z,26.6955,-81.8138,1.304,7.21,1111122 
SCCF RECON,ioos:station:SCCF:18:1,2019-02-09T16:00:00Z,26.6955,-81.8138,1.263,7.22,1111122 
SCCF RECON,ioos:station:SCCF:18:1,2019-02-09T17:00:00Z,26.6955,-81.8138,1.215,7.34,1111122 
SCCF RECON,ioos:station:SCCF:18:1,2019-02-09T18:00:00Z,26.6955,-81.8138,1.162,7.6,1111122 
SCCF RECON,ioos:station:SCCF:18:1,2019-02-09T19:00:00Z,26.6955,-81.8138,1.121,7.83,1111122 
SCCF RECON,ioos:station:SCCF:18:1,2019-02-09T20:00:00Z,26.6955,-81.8138,1.13,7.45,1111122 
SCCF RECON,ioos:station:SCCF:18:1,2019-02-09T21:00:00Z,26.6955,-81.8138,1.193,7.53,1111122 
SCCF RECON,ioos:station:SCCF:18:1,2019-02-09T22:00:00Z,26.6955,-81.8138,1.27,7.56,1111122 
SCCF RECON,ioos:station:SCCF:18:1,2019-02-09T23:00:00Z,26.6955,-81.8138,1.33,7.53,1111122 
SCCF RECON,ioos:station:SCCF:18:1,2019-02-10T05:00:00Z,26.6955,-81.8138,1.226,7.1,1111122 
SCCF RECON,ioos:station:SCCF:18:1,2019-02-10T06:00:00Z,26.6955,-81.8138,1.191,7.17,1111122 
SCCF RECON,ioos:station:SCCF:18:1,2019-02-10T07:00:00Z,26.6955,-81.8138,1.177,6.83,1111122 
SCCF RECON,ioos:station:SCCF:18:1,2019-02-10T08:00:00Z,26.6955,-81.8138,1.211,7.18,1111122 
SCCF RECON,ioos:station:SCCF:18:1,2019-02-10T09:00:00Z,26.6955,-81.8138,1.279,7.05,1111122 
SCCF RECON,ioos:station:SCCF:18:1,2019-02-10T10:00:00Z,26.6955,-81.8138,1.348,6.71,1111122 
SCCF RECON,ioos:station:SCCF:18:1,2019-02-10T11:00:00Z,26.6955,-81.8138,1.39,6.96,1111122 
SCCF RECON,ioos:station:SCCF:18:1,2019-02-10T12:00:00Z,26.6955,-81.8138,1.412,6.82,1111122 
SCCF RECON,ioos:station:SCCF:18:1,2019-02-10T13:00:00Z,26.6955,-81.8138,1.401,6.77,1111122 
SCCF RECON,ioos:station:SCCF:18:1,2019-02-10T14:00:00Z,26.6955,-81.8138,1.347,6.19,1111122 
SCCF RECON,ioos:station:SCCF:18:1,2019-02-10T15:00:00Z,26.6955,-81.8138,1.295,6.68,1111122 
SCCF RECON,ioos:station:SCCF:18:1,2019-02-10T16:00:00Z,26.6955,-81.8138,1.254,6.82,1111122 
SCCF RECON,ioos:station:SCCF:18:1,2019-02-10T17:00:00Z,26.6955,-81.8138,1.205,6.91,1111122 
SCCF RECON,ioos:station:SCCF:18:1,2019-02-10T18:00:00Z,26.6955,-81.8138,1.161,6.99,1111122 
SCCF RECON,ioos:station:SCCF:18:1,2019-02-10T19:00:00Z,26.6955,-81.8138,1.139,7.14,1111122 
SCCF RECON,ioos:station:SCCF:18:1,2019-02-10T20:00:00Z,26.6955,-81.8138,1.191,7.19,1111122 
SCCF RECON,ioos:station:SCCF:18:1,2019-02-10T21:00:00Z,26.6955,-81.8138,1.277,7.52,1111122 
SCCF RECON,ioos:station:SCCF:18:1,2019-02-10T22:00:00Z,26.6955,-81.8138,1.349,7.75,1111122 
SCCF RECON,ioos:station:SCCF:18:1,2019-02-10T23:00:00Z,26.6955,-81.8138,1.409,7.65,1111122 
SCCF RECON,ioos:station:SCCF:18:1,2019-02-11T05:00:00Z,26.6955,-81.8138,1.375,6.92,1111122 
SCCF RECON,ioos:station:SCCF:18:1,2019-02-11T06:00:00Z,26.6955,-81.8138,1.331,6.87,1111122 
SCCF RECON,ioos:station:SCCF:18:1,2019-02-11T07:00:00Z,26.6955,-81.8138,1.3,6.83,1111122 
SCCF RECON,ioos:station:SCCF:18:1,2019-02-11T08:00:00Z,26.6955,-81.8138,1.283,6.79,1111122 
SCCF RECON,ioos:station:SCCF:18:1,2019-02-11T09:00:00Z,26.6955,-81.8138,1.332,6.75,1111122 
SCCF RECON,ioos:station:SCCF:18:1,2019-02-11T10:00:00Z,26.6955,-81.8138,1.4,6.73,1111122 
SCCF RECON,ioos:station:SCCF:18:1,2019-02-11T11:00:00Z,26.6955,-81.8138,1.462,6.48,1111122 
SCCF RECON,ioos:station:SCCF:18:1,2019-02-11T12:00:00Z,26.6955,-81.8138,1.499,6.59,1111122 
SCCF RECON,ioos:station:SCCF:18:1,2019-02-11T13:00:00Z,26.6955,-81.8138,1.52,6.67,1111122 
SCCF RECON,ioos:station:SCCF:18:1,2019-02-11T14:00:00Z,26.6955,-81.8138,1.52,6.58,1111122 
SCCF RECON,ioos:station:SCCF:18:1,2019-02-11T15:00:00Z,26.6955,-81.8138,1.47,6.43,1111122 
SCCF RECON,ioos:station:SCCF:18:1,2019-02-11T16:00:00Z,26.6955,-81.8138,1.399,6.45,1111122 
SCCF RECON,ioos:station:SCCF:18:1,2019-02-11T17:00:00Z,26.6955,-81.8138,1.342,6.73,1111122 
SCCF RECON,ioos:station:SCCF:18:1,2019-02-11T18:00:00Z,26.6955,-81.8138,1.3,7.03,1111122 
SCCF RECON,ioos:station:SCCF:18:1,2019-02-11T19:00:00Z,26.6955,-81.8138,1.27,7.13,1111122 
SCCF RECON,ioos:station:SCCF:18:1,2019-02-11T20:00:00Z,26.6955,-81.8138,1.273,7.14,1111122 
SCCF RECON,ioos:station:SCCF:18:1,2019-02-11T21:00:00Z,26.6955,-81.8138,1.341,7.38,1111122 
SCCF RECON,ioos:station:SCCF:18:1,2019-02-11T22:00:00Z,26.6955,-81.8138,1.429,7.33,1111122 
SCCF RECON,ioos:station:SCCF:18:1,2019-02-11T23:00:00Z,26.6955,-81.8138,1.476,7.25,1111122 
SCCF RECON,ioos:station:SCCF:18:1,2019-02-12T05:00:00Z,26.6955,-81.8138,1.39,6.59,1111122 
SCCF RECON,ioos:station:SCCF:18:1,2019-02-12T06:00:00Z,26.6955,-81.8138,1.351,6.58,1111122 
SCCF RECON,ioos:station:SCCF:18:1,2019-02-12T07:00:00Z,26.6955,-81.8138,1.305,6.55,1111122 
SCCF RECON,ioos:station:SCCF:18:1,2019-02-12T08:00:00Z,26.6955,-81.8138,1.264,6.5,1111122 
SCCF RECON,ioos:station:SCCF:18:1,2019-02-12T09:00:00Z,26.6955,-81.8138,1.25,6.42,1111122 
SCCF RECON,ioos:station:SCCF:18:1,2019-02-12T10:00:00Z,26.6955,-81.8138,1.3,6.49,1111122 
SCCF RECON,ioos:station:SCCF:18:1,2019-02-12T11:00:00Z,26.6955,-81.8138,1.37,6.42,1111122 
SCCF RECON,ioos:station:SCCF:18:1,2019-02-12T12:00:00Z,26.6955,-81.8138,1.43,6.26,1111122 
SCCF RECON,ioos:station:SCCF:18:1,2019-02-12T13:00:00Z,26.6955,-81.8138,1.47,6.26,1111122 
SCCF RECON,ioos:station:SCCF:18:1,2019-02-12T14:00:00Z,26.6955,-81.8138,1.51,6.33,1111122 
SCCF RECON,ioos:station:SCCF:18:1,2019-02-12T15:00:00Z,26.6955,-81.8138,1.54,6.41,1111122 
SCCF RECON,ioos:station:SCCF:18:1,2019-02-12T16:00:00Z,26.6955,-81.8138,1.539,6.37,1111122 
SCCF RECON,ioos:station:SCCF:18:1,2019-02-12T17:00:00Z,26.6955,-81.8138,1.508,6.48,1111122 
SCCF RECON,ioos:station:SCCF:18:1,2019-02-12T18:00:00Z,26.6955,-81.8138,1.477,6.57,1111122 
SCCF RECON,ioos:station:SCCF:18:1,2019-02-12T19:00:00Z,26.6955,-81.8138,1.486,6.67,1111122 
SCCF RECON,ioos:station:SCCF:18:1,2019-02-12T20:00:00Z,26.6955,-81.8138,1.517,6.53,1111122 
SCCF RECON,ioos:station:SCCF:18:1,2019-02-12T21:00:00Z,26.6955,-81.8138,1.571,7.5,1111122 
SCCF RECON,ioos:station:SCCF:18:1,2019-02-12T22:00:00Z,26.6955,-81.8138,1.611,6.51,1111122 
SCCF RECON,ioos:station:SCCF:18:1,2019-02-12T23:00:00Z,26.6955,-81.8138,1.649,6.52,1111122 
SCCF RECON,ioos:station:SCCF:18:1,2019-02-13T05:00:00Z,26.6955,-81.8138,1.54,6.62,1111122 
SCCF RECON,ioos:station:SCCF:18:1,2019-02-13T06:00:00Z,26.6955,-81.8138,1.48,6.53,1111122 
SCCF RECON,ioos:station:SCCF:18:1,2019-02-13T07:00:00Z,26.6955,-81.8138,1.45,6.46,1111122 
SCCF RECON,ioos:station:SCCF:18:1,2019-02-13T08:00:00Z,26.6955,-81.8138,1.393,6.49,1111122 
SCCF RECON,ioos:station:SCCF:18:1,2019-02-13T09:00:00Z,26.6955,-81.8138,1.34,6.36,1111122 
SCCF RECON,ioos:station:SCCF:18:1,2019-02-13T10:00:00Z,26.6955,-81.8138,1.29,6.53,1111122 
SCCF RECON,ioos:station:SCCF:18:1,2019-02-13T11:00:00Z,26.6955,-81.8138,1.261,6.49,1111122 
SCCF RECON,ioos:station:SCCF:18:1,2019-02-13T12:00:00Z,26.6955,-81.8138,1.239,6.42,1111122 
SCCF RECON,ioos:station:SCCF:18:1,2019-02-13T13:00:00Z,26.6955,-81.8138,1.204,6.38,1111122 
SCCF RECON,ioos:station:SCCF:18:1,2019-02-13T14:00:00Z,26.6955,-81.8138,1.18,6.57,1111122 
SCCF RECON,ioos:station:SCCF:18:1,2019-02-13T15:00:00Z,26.6955,-81.8138,1.171,6.65,1111122 
SCCF RECON,ioos:station:SCCF:18:1,2019-02-13T16:00:00Z,26.6955,-81.8138,1.147,6.52,1111122 
SCCF RECON,ioos:station:SCCF:18:1,2019-02-13T17:00:00Z,26.6955,-81.8138,1.129,6.67,1111122 
SCCF RECON,ioos:station:SCCF:18:1,2019-02-13T18:00:00Z,26.6955,-81.8138,1.106,6.6,1111122 
SCCF RECON,ioos:station:SCCF:18:1,2019-02-13T19:00:00Z,26.6955,-81.8138,1.078,6.63,1111122 
SCCF RECON,ioos:station:SCCF:18:1,2019-02-13T20:00:00Z,26.6955,-81.8138,1.052,6.69,1111122 
SCCF RECON,ioos:station:SCCF:18:1,2019-02-13T21:00:00Z,26.6955,-81.8138,1.048,6.86,1111122 
SCCF RECON,ioos:station:SCCF:18:1,2019-02-14T21:00:00Z,26.6955,-81.8138,1.172,6.74,1111122 
SCCF RECON,ioos:station:SCCF:18:1,2019-02-14T22:00:00Z,26.6955,-81.8138,1.23,7.0,1111122 
SCCF RECON,ioos:station:SCCF:18:1,2019-02-14T23:00:00Z,26.6955,-81.8138,1.306,6.74,1111122 
SCCF RECON,ioos:station:SCCF:18:1,2019-02-15T05:00:00Z,26.6955,-81.8138,1.542,6.87,1111122 
SCCF RECON,ioos:station:SCCF:18:1,2019-02-15T06:00:00Z,26.6955,-81.8138,1.485,6.53,1111122 
SCCF RECON,ioos:station:SCCF:18:1,2019-02-15T07:00:00Z,26.6955,-81.8138,1.421,6.12,1111122 
SCCF RECON,ioos:station:SCCF:18:1,2019-02-15T08:00:00Z,26.6955,-81.8138,1.365,6.27,1111122 
SCCF RECON,ioos:station:SCCF:18:1,2019-02-15T09:00:00Z,26.6955,-81.8138,1.302,6.51,1111122 
SCCF RECON,ioos:station:SCCF:18:1,2019-02-15T10:00:00Z,26.6955,-81.8138,1.252,6.24,1111122 
SCCF RECON,ioos:station:SCCF:18:1,2019-02-15T11:00:00Z,26.6955,-81.8138,1.211,5.87,1111122 
SCCF RECON,ioos:station:SCCF:18:1,2019-02-15T12:00:00Z,26.6955,-81.8138,1.177,6.09,1111122 
SCCF RECON,ioos:station:SCCF:18:1,2019-02-15T13:00:00Z,26.6955,-81.8138,1.149,5.93,1111122 
SCCF RECON,ioos:station:SCCF:18:1,2019-02-15T14:00:00Z,26.6955,-81.8138,1.14,5.99,1111122 
SCCF RECON,ioos:station:SCCF:18:1,2019-02-15T15:00:00Z,26.6955,-81.8138,1.201,6.15,1111122 
SCCF RECON,ioos:station:SCCF:18:1,2019-02-15T16:00:00Z,26.6955,-81.8138,1.279,6.15,1111122 
SCCF RECON,ioos:station:SCCF:18:1,2019-02-15T17:00:00Z,26.6955,-81.8138,1.335,6.58,1111122 
SCCF RECON,ioos:station:SCCF:18:1,2019-02-15T18:00:00Z,26.6955,-81.8138,1.361,6.57,1111122 